Погода в Силвише

Португалия     37°11′14″N   8°26′15″W
темп.,
°C
ветер,
м/с
пор.,
м/с
влажн.,
%
обл.,
%
осадки,
мм/ч
давл.,
гПа
погр.,
м
26 января, ср
ср2600:00+9св336979 0.0 102541
03:00+8ссв33739 0.0 102540
06:00+8ссв347496 0.0 102479
09:00+10св3763100 0.0 1024227
12:00+13в475839 0.0 1024603
15:00+15в455299 0.0 10221281
18:00+13с246298 0.0 1022126
21:00+11св376794 0.0 1023243
27 января, чт
чт2700:00+10св377280 0.0 1023180
03:00+9св357770 0.0 102397
06:00+8св387985 0.0 1023180
09:00+11всв397340 0.0 1024420
12:00+16вюв585530 0.0 10241311
15:00+16вюв575258 0.0 10231523
18:00+12вюв226793 0.0 102441
21:00+12всв116918 0.0 102528
28 января, пт
пт2800:00+9св227461 0.0 102617
03:00+8ссв33798 0.0 102632
06:00+8св34735 0.0 102556
09:00+10св37645 0.0 1027185
12:00+17в58425 0.0 10261408
15:00+18в57380 0.0 10241613
18:00+12в23580 0.0 102535
21:00+10всв22610 0.0 102732
29 января, сб
сб2900:00+9св22745 0.0 102730
03:00+8св33711 0.0 102647
06:00+8св35665 0.0 102685
09:00+11всв4125899 0.0 1027507
12:00+15вюв374896 0.0 1028776
15:00+17вюв5848100 0.3 1026913
18:00+12в116226 0.3 102615
21:00+10всв22658 0.0 102720
30 января, вс
вс3000:00+10всв126998 0.0 102723
03:00+10всв347099 0.0 102678
06:00+9с22685 0.0 102618
09:00+12св22575 0.0 102768
12:00+18юв34370 0.0 1026635
15:00+19ююв223710 0.0 1024795
18:00+12зсз11645 0.0 102411
21:00+11ссв116797 0.0 102611